This is the latest recevied weather packets stored in our database for station/object DC0VZ-6. If no packets are shown the sender has not sent any weather packets the latest 10 day(s).
| Time | Temp. | Humidity | Pressure | Rain* | Wind** | Luminosity | Snow |
|---|---|---|---|---|---|---|---|
| 1777637170 | 26.11° C | 5% | 993.6 hPa | 0 mm | - | - | - |
| 1777636570 | 25.56° C | 5% | 993.8 hPa | 0 mm | - | - | - |
| 1777635970 | 25.56° C | 5% | 993.8 hPa | 0 mm | - | - | - |
| 1777635370 | 25.56° C | 5% | 993.9 hPa | 0 mm | - | - | - |
| 1777634770 | 25° C | 5% | 993.9 hPa | 0 mm | - | - | - |
| 1777634170 | 25° C | 5% | 994.1 hPa | 0 mm | - | - | - |
| 1777633570 | 23.89° C | 5% | 994.1 hPa | 0 mm | - | - | - |
| 1777632969 | 23.89° C | 5% | 994.2 hPa | 0 mm | - | - | - |
| 1777632369 | 23.89° C | 5% | 994.2 hPa | 0 mm | - | - | - |
| 1777631769 | 22.78° C | 5% | 994.1 hPa | 0 mm | - | - | - |
| 1777631175 | 23.33° C | 5% | 994.1 hPa | 0 mm | - | - | - |
| 1777630574 | 23.89° C | 5% | 994.4 hPa | 0 mm | - | - | - |
| 1777629974 | 21.67° C | 5% | 994.4 hPa | 0 mm | - | - | - |
| 1777629374 | 22.22° C | 5% | 994.3 hPa | 0 mm | - | - | - |
| 1777628774 | 22.22° C | 5% | 994.3 hPa | 0 mm | - | - | - |
| 1777628174 | 21.67° C | 5% | 994.1 hPa | 0 mm | - | - | - |
| 1777627574 | 20.56° C | 5% | 994.1 hPa | 0 mm | - | - | - |
| 1777626973 | 21.11° C | 5% | 993.9 hPa | 0 mm | - | - | - |
| 1777626373 | 20° C | 5% | 993.9 hPa | 0 mm | - | - | - |
| 1777625773 | 19.44° C | 5% | 993.9 hPa | 0 mm | - | - | - |
| 1777625173 | 18.89° C | 5% | 993.9 hPa | 0 mm | - | - | - |
| 1777624573 | 18.89° C | 5% | 993.8 hPa | 0 mm | - | - | - |
| 1777623973 | 18.33° C | 5% | 993.8 hPa | 0 mm | - | - | - |
| 1777623373 | 17.78° C | 5% | 993.8 hPa | 0 mm | - | - | - |
| 1777622773 | 16.67° C | 12% | 993.8 hPa | 0 mm | - | - | - |
* Rain latest hour (hover to see other rain measurements)
** Current wind speed in m/s (hover to see current wind gust speed)